Tracking 31027 objects as of 19-Jul-2025
HD Live streaming from Space Station
objects crossing your sky now

STARLINK-33792

Track STARLINK-33792 now!
10-day predictions
STARLINK-33792 is classified as:


NORAD ID: 63506
Int'l Code: 2025-071P
Perigee: 481.5 km
Apogee: 483.2 km
Inclination: 53.2 °
Period: 94.1 minutes
Semi major axis: 6853 km
RCS: Unknown
Launch date: April 7, 2025
Source: United States (US)
Launch site: AIR FORCE WESTERN TEST RANGE (AFWTR)
Your satellite tracking list
STARLINK-3674
Track 1 satellite(s)




NASA's NSSDC Master Catalog

Two Line Element Set (TLE):
1 63506U 25071P   25199.91668981  .00005213  00000-0  18799-3 0  9997
2 63506  53.1592 145.5799 0001270  95.8299 168.6826 15.30205370 16920
Source of the keplerian elements: AFSPC